Location: Beneden-Haastrecht
(52.0012°N, 4.7557°E)
Time: 14:45:36
(UTC+00:00)

Meteor 2-3 Rocket - Pass Details

Date: 24 October 2020
Orbit: 843 x 885 km, 81.2° (Epoch: 29 November)

Event Time Altitude Azimuth Distance (km) Brightness Sun altitude
Rises 18:50:52 0° 350° (N) 3,446 7.1 -22.7°
Reaches altitude 10° 18:53:28 10° 358° (N) 2,512 6.3 -23.1°
Enters shadow 18:57:53 37° 45° (NE) 1,325 4.4 -23.7°
